Simultaneous Nadir Overpasses (SNOs) Predictions

Prediction of SNOs between LANDSAT-8 and METOP-A Satellite Orbit:

Table of predicted SNOs for the next 14.0 days since TLE Epoch: 12/30/2017
Index Date (LANDSAT-8) Time (LANDSAT-8) Lat,Lon (LANDSAT-8) SZA (LANDSAT-8 ) Date (METOP-A) Time (METOP-A) Lat,Lon (METOP-A) SZA (METOP-A ) Distance(km) Time Diff (sec)
1 12/31/2017 19:22:12 81.27, -68.44 106.33 12/31/2017 19:21:22 81.27, -68.56 106.30 2.04 50
2 12/31/2017 20:11:38 -81.28, 99.48 73.64 12/31/2017 20:12:01 -81.29, 99.60 73.61 2.17 23
3 01/03/2018 14:56:25 81.27, -1.91 106.06 01/03/2018 14:55:39 81.28, -1.76 106.06 2.64 46
4 01/03/2018 15:45:51 -81.29, 166.03 73.91 01/03/2018 15:46:19 -81.29, 166.02 73.90 0.13 28
5 01/06/2018 10:30:39 81.28, 64.58 105.73 01/06/2018 10:29:58 81.28, 64.63 105.72 0.90 41
6 01/06/2018 11:20:05 -81.30,-127.45 74.24 01/06/2018 11:20:38 -81.29,-127.57 74.24 2.14 33
7 01/09/2018 06:04:53 81.28, 131.04 105.33 01/09/2018 06:04:17 81.28, 131.01 105.32 0.60 36
8 01/09/2018 06:54:19 -81.30, -60.96 74.63 01/09/2018 06:54:56 -81.30, -60.80 74.60 2.73 37
9 01/12/2018 01:39:06 81.28,-162.53 104.88 01/12/2018 01:38:35 81.28,-162.63 104.86 1.76 31




NCC Satellite Simultaneous Nadir Overpasses (SNOs) Prediction Service
